Torna al catalogo

STARLINK-6299

AttivoComunicazioniVLEO
NORAD 57358·PAYLOAD·🇺🇸 United States

Lanciato Jul 16, 2023 da Cape Canaveral Space Force Station

Loading…

Prossimi Passaggi (prossime 24 ore)

TLE

AggiornatoSource: CelesTrak SupGP

Epoca: Sep 14, 2026, 21:30 UTC

1 57358C 23099AG  26257.89631944  .00024852  00000+0  90035-3 0  2574
2 57358  43.0017 252.7265 0001573 262.4178 359.2977 15.27557926    12

Traccia STARLINK-6299 in tempo reale con AllMySat

Download on the App Store